Regional Weather Roundup
Issued by NWS State College, PA

Home | Current Version | Previous Version | Text Only | Print | Product List | Glossary Off
Versions: 1 2 3 4 5 6 7 8 9 10 11 12 13 14 15 16 17 18 19 20 21 22 23 24 25 26 27 28 29 30 31 32 33 34 35 36 37 38 39 40 41 42 43 44 45 46 47 48 49 50

000
ASUS41 KCTP 260510
RWRCTP

REGIONAL WEATHER ROUNDUP
NATIONAL WEATHER SERVICE STATE COLLEGE PA
100 AM EDT TUE JUL 26 2016

Note: "fair" indicates few or no clouds below 12,000 feet with no
significant weather and/or obstructions to visibility.

* = STATION THAT DOES NOT REPORT PRECIPITATION /E.G. RAIN...SNOW...ETC/
    THUNDER OR FOG.

PAZ002>004-007>009-013>016-020>023-029>032-260600-
WESTERN PENNSYLVANIA

CITY           SKY/WX    TMP DP  RH WIND       PRES   REMARKS
ERIE           CLEAR     73  68  84 S5        29.94S
MEADVILLE      PTCLDY    71  65  81 SW5       29.99S
FRANKLIN*      CLEAR     70  64  83 W5        30.02R
NEW CASTLE     FAIR      70  69  97 CALM      30.00R
BEAVER COUNTY  NOT AVBL
BUTLER*        CLOUDY    70  66  88 CALM      30.02S
PITTSBURGH INT CLOUDY    74  69  85 W6        29.99R
PITTSBURGH     PTCLDY    74  69  85 SW3       29.99R
INDIANA*       CLEAR     72  70  94 CALM      30.03S
LATROBE        PTCLDY    72  72 100 CALM      30.00S
WASHINGTON CO* CLOUDY    72  68  88 CALM      30.00F
$$

PAZ004>006-010>012-017>019-024>028-033>037-041-042-045-046-049>053-260600-
CENTRAL PENNSYLVANIA

CITY           SKY/WX    TMP DP  RH WIND       PRES   REMARKS
BRADFORD       PTCLDY    69  64  84 W5        30.01S
DUBOIS         PTCLDY    69  66  90 CALM      30.01R
CLEARFIELD     PTCLDY    71  69  93 SW3       30.00R FOG
JOHNSTOWN      CLOUDY    70  65  84 SW3       30.04R
ALTOONA        CLEAR     72  66  81 CALM      30.00S
STATE COLLEGE  CLOUDY    73  71  93 SW6       29.98R
WILLIAMSPORT   CLOUDY    71  68  90 CALM      29.94R FOG
SELINSGROVE    PTCLDY    68  68 100 CALM      29.94F FOG
FT INDIANTOWN  CLEAR     68  68 100 CALM      29.93F
CAPITAL CITY   CLEAR     73  70  90 CALM      29.93S
HARRISBURG     PTCLDY    73  72  96 CALM      29.92F
YORK           FOG       71  71 100 CALM      29.94S VSB 1/4
$$

PAZ038>040-043-044-047-048-054-055-060>062-067>071-260600-
EASTERN PENNSYLVANIA

CITY           SKY/WX    TMP DP  RH WIND       PRES   REMARKS
SCRANTON       CLEAR     69  67  93 SW7       29.94R
MOUNT POCONO   CLEAR     65  63  93 W9        29.97S
ALLENTOWN      CLEAR     69  67  93 CALM      29.92F
QUAKERTOWN*    CLEAR     70  70 100 CALM      29.93F
READING        CLEAR     71  68  90 CALM      29.91F FOG
LANCASTER      CLEAR     71  70  96 CALM      29.93F
COATESVILLE    CLEAR     72  70  94 CALM      29.95S
POTTSTOWN      CLEAR     70  70 100 CALM      29.93F
BLUE BELL      PTCLDY    70  70 100 W3        29.90S
DOYLESTOWN     CLEAR     70  70 100 CALM      29.91S
WILLOW GROVE   NOT AVBL
NORTH PHILA    PTCLDY    74  73  97 W3        29.91F
PHILADELPHIA   PTCLDY    75  73  93 W8        29.91F
$$



USA.gov is the U.S. government's official web portal to all federal, state and local government web resources and services.